星链-37640(STARLINK-37640)

导读

STARLINK-37640(NORAD编号69447)是美国太空探索技术公司(SpaceX)星链星座的V1.0版通信卫星,主要用于为全球提供低轨高速互联网服务。该卫星轨道高度约482-484公里,轨道倾角43°,运行周期94.27分钟,每日绕地约15.28圈,截至2026年6月尚无公开在轨异常或再入记录,是星链超1万颗在轨工作卫星的组成部分,支撑偏远地区通信、行业专网等应用场景。

基本信息
目录编号:
69447
目录名称:
STARLINK-37640
国际标识:
2026-127E
轨道中心:
EARTH
卫星名称:
星链-37640
卫星全名:
星链-37640(STARLINK-37640)
卫星状态:
在轨 (已飞行88 天)
发射日期:
2026-06-08 UTC
国别 :
美国 (US)
星等 :
--
轨道信息
数据来源 国际轨道数据
星历时间: 2026-09-03T17:52:17+0800
23小时前
查看轨道信息
半长轴: 6840.816km
偏心率: 0.0001423
轨道倾角: 53.158°
近地点辐角 81.989°
升交点赤经 245.955°
平近点角 278.127°
近地点: 461.705km
远地点: 463.653km
周期: 93.847分钟
每日圈数: 15.344084
详细信息
固有亮度:
5
最大亮度:
2.5
卫星平台:
Starlink V1.0
覆盖范围:
全球
运营商:
太空探索技术公司
运营商所在国:
美国
制造商(研发单位):
太空探索技术公司
制造商所在国:
美国
使用方式:
暂无
卫星简介
Starlink 计划是 SpaceX 推出的全球卫星互联网项目,通过发射低轨道卫星,为全球尤其是偏远地区提供高速、低延迟的互联网服务。自 2019 年起,Starlink 已部署数千颗卫星,旨在缩小全球数字鸿沟,推动互联网普及。该项目还为军事、航空等行业提供通信支持,带来广泛经济效益。
2D轨道图
3D轨道图
轨道高度分析图
轨道倾角分析图
轨道综合分析图
查看轨道综合分析图
交会数据列表
事件ID 空间交会对象 最接近时刻(TCA) 交会距离 交会风险概率(CRP) 交会风险指数(CRI) 操作
CDM_260905-012606-172306-944721
2026-09-05T
01:26:30+0000
0.352 km
远距离
2.813182E-4 高风险 0.84
CDM_260906-164305-254006-944721
2026-09-06T
16:43:33+0000
1.119 km
极远距离
1.582796E-5 中风险 0.59
CDM_260905-030006-172306-944721
2026-09-05T
03:00:17+0000
2.167 km
极远距离
1.507251E-6 低风险 0.39
CDM_260904-235206-172306-944721
2026-09-04T
23:52:42+0000
2.296 km
极远距离
1.337368E-6 低风险 0.38
CDM_260905-074305-247206-944721
2026-09-05T
07:43:27+0000
2.961 km
极远距离
9.920285E-7 极低风险 0.35